Total_Precipitation_Accumulation
0.06 0.15 0.21 0.23 0.21 0.17 0.13 0.12 0.24 0.27 0.35 0.45 0.58 0.54 0.52 0.50 0.42 0.42 0.50 0.49 0.47 0.46 0.50 0.53 0.59 0.58 0.56 0.57 0.58 0.72 1.10 1.32 1.29 1.27 1.28 1.25 1.25 1.33 1.40 1.46 1.51 1.72 1.90 2.01
0.10 0.14 0.15 0.16 0.19 0.17 0.11 0.10 0.10 0.15 0.29 0.34 0.50 0.59 0.61 0.59 0.54 0.51 0.52 0.47 0.44 0.39 0.49 0.58 0.64 0.65 0.62 0.61 0.63 0.74 1.00 1.22 1.22 1.20 1.18 1.13 1.18 1.27 1.44 1.54 1.69 1.87 1.90 1.88
0.15 0.19 0.17 0.24 0.20 0.17 0.15 0.14 0.14 0.22 0.35 0.33 0.39 0.51 0.59 0.62 0.58 0.53 0.55 0.46 0.41 0.45 0.59 0.79 0.71 0.69 0.73 0.67 0.66 0.79 0.99 1.17 1.26 1.23 1.25 1.23 1.21 1.37 1.57 1.72 1.87 1.98 1.96 1.90
0.21 0.25 0.36 0.28 0.21 0.22 0.24 0.27 0.28 0.31 0.35 0.37 0.49 0.55 0.66 0.83 0.69 0.54 0.56 0.57 0.60 0.58 0.67 0.74 0.70 0.72 0.75 0.74 0.73 0.84 1.04 1.25 1.34 1.29 1.34 1.43 1.43 1.52 1.74 1.95 2.08 2.10 2.06 1.98
0.31 0.34 0.41 0.37 0.29 0.34 0.37 0.42 0.44 0.47 0.41 0.46 0.52 0.62 0.72 0.70 0.67 0.71 0.70 0.68 0.72 0.78 0.80 0.86 0.87 0.83 0.80 0.87 0.91 1.00 1.09 1.27 1.38 1.43 1.52 1.54 1.58 1.76 1.97 2.16 2.20 2.16 2.20 2.11
0.44 0.52 0.58 0.57 0.42 0.36 0.43 0.72 0.59 0.61 0.60 0.54 0.56 0.80 0.87 0.73 0.67 0.68 0.77 0.85 0.81 0.86 0.88 0.91 0.94 0.98 0.99 1.05 1.18 1.33 1.42 1.49 1.67 1.84 2.00 2.08 2.13 2.20 2.25 2.32 2.24 2.20 2.18 2.19
0.64 0.75 0.69 0.53 0.47 0.42 0.80 1.12 0.84 0.81 0.79 0.70 0.81 0.90 0.88 0.76 0.70 0.65 0.68 0.79 0.83 0.82 0.90 0.98 0.99 1.10 1.25 1.33 1.44 1.57 1.71 1.79 1.98 2.27 2.44 2.44 2.45 2.40 2.32 2.33 2.34 2.32 2.23 2.21
0.86 1.08 1.13 0.62 0.58 0.89 1.12 0.94 0.97 1.00 0.98 0.91 0.88 0.93 0.94 0.90 0.74 0.66 0.67 0.73 0.81 0.85 0.89 1.03 1.25 1.43 1.66 1.75 1.70 1.79 1.95 2.10 2.29 2.52 2.46 2.38 2.56 2.50 2.47 2.54 2.52 2.40 2.30 2.21
1.12 1.31 1.11 0.76 0.88 1.07 1.05 1.00 1.02 1.02 0.97 0.87 0.82 0.95 0.90 0.82 0.79 0.66 0.64 0.71 0.78 0.85 0.95 1.07 1.31 1.66 1.90 1.97 2.07 2.09 2.15 2.23 2.29 2.39 2.57 2.73 2.80 2.69 2.62 2.60 2.54 2.35 2.24 2.11
1.33 1.42 1.20 1.05 1.03 0.99 1.03 1.03 0.97 0.90 0.85 0.86 0.80 0.80 0.79 0.74 0.72 0.68 0.68 0.75 0.79 0.86 1.03 1.25 1.44 1.72 1.87 1.92 1.97 2.00 2.02 2.01 2.08 2.22 2.37 2.46 2.70 2.76 2.67 2.55 2.48 2.42 2.33 2.17
1.67 1.74 1.62 1.50 1.27 1.11 1.08 1.02 1.03 0.99 0.92 0.88 0.82 0.76 0.71 0.70 0.68 0.68 0.68 0.78 0.84 0.92 1.03 1.16 1.36 1.54 1.62 1.77 1.85 1.95 1.96 1.91 1.90 1.92 2.04 2.13 2.23 2.35 2.33 2.32 2.14 2.04 1.96 1.89
1.88 1.66 1.62 1.76 1.51 1.30 1.22 1.19 1.23 1.26 1.22 1.07 0.93 0.86 0.81 0.78 0.70 0.66 0.64 0.73 0.84 0.95 1.06 1.15 1.31 1.51 1.59 1.71 1.80 1.84 1.82 1.75 1.76 1.78 1.85 1.90 1.90 1.85 1.69 1.62 1.48 1.34 1.29 1.23
1.53 1.47 1.46 1.59 1.52 1.47 1.51 1.54 1.55 1.48 1.30 1.05 0.92 0.88 0.81 0.73 0.69 0.67 0.71 0.82 0.96 1.02 1.11 1.22 1.33 1.47 1.63 1.77 1.86 1.93 1.83 1.69 1.59 1.54 1.59 1.62 1.67 1.78 1.83 1.61 1.40 1.22 1.08 0.95
1.43 1.57 1.76 1.79 1.75 1.63 1.65 1.73 1.67 1.43 1.30 1.16 1.00 0.91 0.83 0.72 0.65 0.63 0.67 0.80 0.93 0.99 1.03 1.12 1.28 1.37 1.52 1.68 1.74 1.79 1.76 1.68 1.56 1.52 1.55 1.58 1.62 1.70 1.82 1.80 1.54 1.21 1.06 0.95
1.54 1.55 1.69 1.74 1.72 1.72 1.69 1.71 1.73 1.60 1.39 1.33 1.24 1.09 0.96 0.91 0.87 0.80 0.79 0.84 0.97 1.07 1.10 1.14 1.25 1.31 1.45 1.64 1.69 1.64 1.59 1.53 1.46 1.49 1.51 1.50 1.56 1.60 1.61 1.65 1.55 1.36 1.15 0.94
1.78 1.63 1.65 1.67 1.65 1.62 1.58 1.55 1.52 1.50 1.39 1.29 1.22 1.13 0.98 0.93 0.96 0.92 0.92 1.03 1.22 1.26 1.23 1.24 1.26 1.32 1.48 1.67 1.68 1.60 1.49 1.36 1.25 1.28 1.32 1.31 1.36 1.40 1.40 1.44 1.41 1.31 1.17 0.90
1.73 1.71 1.66 1.56 1.50 1.49 1.39 1.30 1.28 1.26 1.35 1.33 1.15 1.01 0.90 0.82 0.87 0.98 1.08 1.15 1.20 1.18 1.17 1.22 1.20 1.18 1.35 1.55 1.66 1.62 1.44 1.20 0.98 0.90 0.98 1.07 1.17 1.24 1.25 1.24 1.25 1.20 1.03 0.77
1.40 1.42 1.43 1.38 1.35 1.29 1.22 1.11 1.06 1.03 1.10 1.14 1.02 0.93 0.91 0.89 0.99 1.14 1.29 1.32 1.24 1.13 1.09 1.08 1.03 1.06 1.21 1.29 1.37 1.43 1.32 1.19 1.01 0.90 0.92 0.97 1.06 1.16 1.17 1.11 1.08 1.04 0.93 0.73
1.17 1.09 1.14 1.16 1.12 1.05 0.99 0.93 0.92 0.91 0.92 1.00 0.96 0.91 0.98 1.06 1.18 1.27 1.34 1.49 1.52 1.34 1.14 1.01 0.98 0.97 1.08 1.11 1.14 1.25 1.24 1.17 1.05 0.96 0.96 0.96 1.01 1.09 1.07 1.01 0.96 0.91 0.84 0.74
1.18 1.04 1.07 1.05 1.01 0.95 0.88 0.84 0.83 0.81 0.87 0.93 0.94 0.96 1.10 1.21 1.36 1.48 1.51 1.55 1.57 1.45 1.19 0.98 0.88 0.88 0.93 0.99 1.05 1.06 1.10 1.06 0.94 0.88 0.89 0.93 0.91 0.93 0.91 0.87 0.82 0.78 0.74 0.72
1.17 1.14 1.12 1.12 1.08 0.93 0.85 0.82 0.82 0.83 0.89 0.96 1.02 1.06 1.22 1.35 1.46 1.60 1.76 1.73 1.50 1.36 1.17 0.99 0.85 0.82 0.82 0.90 0.95 0.96 1.01 1.03 0.95 0.87 0.85 0.86 0.85 0.84 0.80 0.79 0.75 0.69 0.66 0.64
1.05 1.08 1.05 1.02 0.97 0.91 0.86 0.84 0.84 0.89 0.99 1.06 1.10 1.14 1.26 1.36 1.47 1.59 1.63 1.73 1.55 1.43 1.15 0.92 0.79 0.76 0.76 0.82 0.81 0.87 0.90 0.92 0.88 0.81 0.77 0.77 0.78 0.82 0.82 0.76 0.70 0.65 0.64 0.65
0.96 0.98 0.98 0.97 0.95 0.95 0.89 0.85 0.87 0.93 1.05 1.16 1.23 1.27 1.34 1.35 1.45 1.78 1.84 1.62 1.46 1.35 1.05 0.88 0.82 0.75 0.72 0.71 0.75 0.80 0.81 0.82 0.83 0.74 0.68 0.67 0.71 0.79 0.83 0.81 0.77 0.68 0.65 0.62
0.99 0.92 0.93 0.91 0.88 0.93 0.92 0.88 0.91 0.99 1.04 1.09 1.12 1.16 1.28 1.31 1.30 1.41 1.65 1.73 1.56 1.34 1.04 0.94 0.85 0.74 0.66 0.62 0.75 0.81 0.81 0.80 0.80 0.68 0.59 0.58 0.64 0.75 0.80 0.82 0.79 0.72 0.68 0.66
1.01 0.92 0.83 0.84 0.90 0.98 1.00 1.02 1.08 1.10 1.10 1.08 0.98 0.97 1.09 1.21 1.34 1.33 1.34 1.41 1.45 1.26 1.07 0.99 0.91 0.83 0.67 0.62 0.72 0.80 0.82 0.83 0.77 0.67 0.62 0.66 0.71 0.77 0.76 0.75 0.72 0.67 0.68 0.70
1.01 0.92 0.90 0.84 0.84 0.93 1.03 1.16 1.33 1.34 1.30 1.30 1.15 0.96 0.94 0.97 1.02 1.09 1.15 1.18 1.19 1.18 1.07 1.03 0.94 0.87 0.78 0.75 0.78 0.85 0.88 0.91 0.82 0.74 0.74 0.79 0.79 0.76 0.76 0.71 0.65 0.64 0.62 0.61
0.90 0.89 0.88 0.85 0.89 0.93 1.04 1.17 1.38 1.45 1.40 1.43 1.28 1.03 0.90 0.87 0.86 0.90 0.97 1.06 1.07 1.08 1.07 1.01 0.92 0.84 0.79 0.79 0.80 0.83 0.87 0.89 0.85 0.81 0.78 0.77 0.77 0.77 0.75 0.70 0.68 0.66 0.64 0.61